sat.trackr.live / text

‹ back to catalog

IPM 2 & BREEZE-M R/B

NORAD 47242 · 2020-097A

PAYLOAD ACTIVE UNKNOWN

§ Identity

Operator
Country
CIS
Launch date
2020-12-14
Launch site
PLMSC
Launch vehicle
Mass (kg)
RCS (m²)

External: N2YO · Heavens-Above · Gunter

§ Orbital elements

Epoch: 2026-09-09T10:23:19.307040Z

Period
1,511.05 min
Inclination
5.5820°
Eccentricity
0.0083377
Mean motion
0.95297701 rev/d
Perigee alt
36,877.6 km
Apogee alt
37,605.0 km
Semi-major
43,619.5 km
B*
0.0000e+0
RAAN
75.6560°
Arg perigee
282.0443°
Mean anomaly
77.3044°
Rev number
2,007

§ Raw data

IPM 2 & BREEZE-M R/B1 47242U 20097A   26252.43286235 -.00000105  00000+0  00000+0 0  99922 47242   5.5820  75.6560 0083377 282.0443  77.3044  0.95297701 20075

JSON: /api/v1/satellites/47242 · /tle

For live sub-satellite position, see the globe view (requires WebGL).

§ Visibility from observer

Set your observer location to see the next 7 days of passes ≥ 10°. The values pass through the URL so the page stays shareable.

No JS? Fill the form by hand. The geolocation button needs JavaScript.